Regional Weather Roundup
Issued by NWS

Home | Current Version | Previous Version | Text Only | Print | Product List | Glossary On
Versions: 1 2 3 4 5 6 7 8 9 10 11 12 13 14 15 16 17 18 19 20 21 22 23 24 25 26 27 28 29 30 31 32 33 34 35 36 37 38 39 40 41 42 43 44 45 46 47 48 49 50
000
ASUS43 KOAX 301510
RWRNE

WEATHER ROUNDUP FOR NEBRASKA
NATIONAL WEATHER SERVICE OMAHA NE
1000 AM CDT MON MAR 30 2015

NOTES: SATELLITE DATA IS BEING USED TO AUGMENT CLOUD COVER ABOVE
       12000 FEET.
       "FAIR" INDICATES FEW OR NO CLOUDS BELOW 12,000 FEET WITH NO
       SIGNIFICANT WEATHER AND/OR OBSTRUCTIONS TO VISIBILITY.

  * THESE STATIONS DO NOT REPORT WEATHER SUCH AS RAIN...SNOW OR FOG.

NEZ001>004-019>022-054>056-301600-
NEBRASKA PANHANDLE

CITY           SKY/WX    TMP DP  RH WIND       PRES   REMARKS
SCOTTSBLUFF    SUNNY     48  27  44 NW10      30.11R
ALLIANCE       SUNNY     49  28  44 NW8       30.08R
CHADRON        SUNNY     54  29  38 W9        30.07R
KIMBALL        SUNNY     56  20  24 NW16G24   30.12R
SIDNEY         SUNNY     55  22  27 W16       30.11R
$$

NEZ057>060-069>072-079>082-301600-
SOUTHWEST NEBRASKA

CITY           SKY/WX    TMP DP  RH WIND       PRES   REMARKS
NORTH PLATTE   SUNNY     54  26  34 SW12      30.06R
IMPERIAL         N/A     51  26  37 W7        30.07F
LEXINGTON      SUNNY     56  21  25 SW14      30.08F
MCCOOK         SUNNY     54  25  32 SW8       30.08F
OGALLALA       SUNNY     52  28  39 W8        30.06S
$$

NEZ005>010-023>029-035>040-094-301600-
NORTH CENTRAL NEBRASKA

CITY           SKY/WX    TMP DP  RH WIND       PRES   REMARKS
VALENTINE      MOSUNNY   55  25  31 W9        30.00S
AINSWORTH      SUNNY     57  25  29 W12       30.01R
BROKEN BOW     SUNNY     59  26  28 SW18G24   30.04F
O`NEILL        MOSUNNY   58  24  27 W21G26    29.99S
ORD            SUNNY     57  17  21 SW13      30.04S
THEDFORD       SUNNY     53  26  34 W13       30.04S
$$

NEZ041-046>049-061>064-073>077-083>087-301600-
SOUTH CENTRAL NEBRASKA

CITY           SKY/WX    TMP DP  RH WIND       PRES   REMARKS
GRAND ISLAND   SUNNY     56  24  29 SW21G28   30.08F
AURORA         SUNNY     56  25  30 SW18G26   30.08F
HASTINGS       SUNNY     56  25  30 SW13G28   30.08F
HEBRON         SUNNY     53  28  37 SW13      30.13S
HOLDREGE       SUNNY     54  22  29 SW18G25   30.09S
KEARNEY *      SUNNY     54  23  30 SW17      30.08F
YORK           SUNNY     55  27  33 SW17G25   30.09F
$$

NEZ011>018-030>034-042>045-301600-
NORTHEAST NEBRASKA

CITY           SKY/WX    TMP DP  RH WIND       PRES   REMARKS
NORFOLK        SUNNY     57  22  25 SW18G30   30.01F
ALBION         SUNNY     57  18  21 SW23G29   30.03F
BLAIR          SUNNY     55  28  36 SW17      30.07F
COLUMBUS *     SUNNY     55  28  35 SW10      30.08F
FREMONT        SUNNY     58  28  31 S10       30.06F
TEKAMAH        MOSUNNY   57  27  31 SW10G22   30.05F
WAYNE          MOSUNNY   58  22  24 SW20G25   30.00F
$$

NEZ050>053-065>068-078-088>093-301600-
SOUTHEAST NEBRASKA

CITY           SKY/WX    TMP DP  RH WIND       PRES   REMARKS
LINCOLN        SUNNY     55  30  38 SW16      30.11F
OMAHA EPPLEY   MOSUNNY   53  28  38 S10       30.08F
BEATRICE       SUNNY     57  31  37 SW14      30.12F
FALLS CITY     SUNNY     57  33  40 SW7       30.13S
NEBRASKA CITY  SUNNY     55  27  33 SW17      30.11S
PLATTSMOUTH    SUNNY     57  24  28 S17G24    30.09F
$$

NEZ044-045-051>053-067-301600-
OMAHA AREA

CITY           SKY/WX    TMP DP  RH WIND       PRES   REMARKS
OMAHA EPPLEY   MOSUNNY   53  28  38 S10       30.08F
BLAIR          SUNNY     55  28  36 SW17      30.07F
FREMONT        SUNNY     58  28  31 S10       30.06F
MILLARD        SUNNY     56  30  37 SW10G17   30.08F
OFFUTT AFB     SUNNY     52  31  45 VRB3      30.08F
PLATTSMOUTH    SUNNY     57  24  28 S17G24    30.09F
WAHOO          FAIR      58  25  28 SW20G25   30.07F
$$


USA.gov is the U.S. government's official web portal to all federal, state and local government web resources and services.